Terminal Aerodrome Forecast
Issued by NWS

Home | Current Version | Previous Version | Text Only | Print | Product List | Glossary On
Versions: 1 2 3 4 5 6 7 8 9 10 11 12 13 14 15 16 17 18 19 20 21 22
000
FTUS41 KCAR 222334
TAFFVE
TAF
KFVE 222334Z 2300/2324 33009G17KT P6SM SCT045
     FM230800 31010KT 6SM -SHRASN OVC035
     FM231300 30014G22KT P6SM BKN045
     FM231600 30017G30KT P6SM BKN060
     FM232200 29014G23KT P6SM SCT070=

USA.gov is the U.S. government's official web portal to all federal, state and local government web resources and services.